TimePDT,TemperatureF,Dew PointF,Humidity,Sea Level PressureIn,VisibilityMPH,Wind Direction,Wind SpeedMPH,Gust SpeedMPH,PrecipitationIn,Events,Conditions,WindDirDegrees,DateUTC
12:50 AM,60.8,52.5,74,29.88,15.0,SSW,11.5,-,0.04,Rain,Light Rain,200,2012-10-15 07:50:00
1:50 AM,61.3,52.3,72,29.88,15.0,SW,11.5,-,0.02,Rain,Light Rain,220,2012-10-15 08:50:00
2:50 AM,58.1,54.7,88,29.87,15.0,North,5.8,-,0.00,Rain,Light Rain,10,2012-10-15 09:50:00
3:50 AM,59.9,52.7,77,29.86,15.0,West,6.9,-,N/A,,Scattered Clouds,260,2012-10-15 10:50:00
4:50 AM,59.4,52.7,79,29.85,15.0,WSW,9.2,-,N/A,,Partly Cloudy,250,2012-10-15 11:50:00
5:50 AM,56.8,52.3,85,29.85,15.0,NE,5.8,-,N/A,,Scattered Clouds,40,2012-10-15 12:50:00
6:50 AM,56.7,52.0,84,29.85,15.0,West,9.2,-,N/A,,Partly Cloudy,260,2012-10-15 13:50:00
7:50 AM,56.7,52.0,84,29.86,15.0,West,10.4,-,N/A,,Partly Cloudy,270,2012-10-15 14:50:00
8:50 AM,61.5,52.5,72,29.87,15.0,West,10.4,-,N/A,,Partly Cloudy,260,2012-10-15 15:50:00
9:50 AM,66.0,53.2,63,29.87,15.0,West,11.5,-,N/A,,Partly Cloudy,280,2012-10-15 16:50:00
10:50 AM,69.4,51.6,53,29.89,15.0,WSW,13.8,19.6,N/A,,Mostly Cloudy,250,2012-10-15 17:50:00
11:50 AM,71.8,51.3,48,29.88,15.0,WSW,8.1,-,N/A,,Scattered Clouds,250,2012-10-15 18:50:00
12:50 PM,72.9,50.0,44,29.86,15.0,WSW,17.3,23.0,N/A,,Mostly Cloudy,250,2012-10-15 19:50:00
1:50 PM,72.5,49.3,44,29.83,15.0,WSW,16.1,24.2,N/A,,Overcast,240,2012-10-15 20:50:00
2:50 PM,71.6,50.2,47,29.81,15.0,SW,16.1,-,N/A,,Overcast,230,2012-10-15 21:50:00
3:50 PM,69.3,51.6,53,29.78,15.0,South,11.5,-,0.00,Rain,Light Rain,190,2012-10-15 22:50:00
4:50 PM,63.0,57.0,81,29.75,15.0,SSW,11.5,-,0.02,Rain,Light Rain,200,2012-10-15 23:50:00
5:50 PM,61.3,58.8,91,29.73,12.0,SSE,6.9,-,0.06,Rain,Light Rain,150,2012-10-16 00:50:00
6:50 PM,60.8,59.5,96,29.68,15.0,ESE,10.4,-,0.04,Rain,Light Rain,120,2012-10-16 01:50:00
10:50 PM,65.1,58.5,79,29.57,15.0,SSW,25.3,33.4,N/A,,Mostly Cloudy,210,2012-10-16 05:50:00
11:50 PM,66.2,58.5,76,29.55,15.0,SSW,16.1,-,N/A,,Scattered Clouds,210,2012-10-16 06:50:00